sat.trackr.live / text

‹ back to catalog

SERT3

NORAD 68499 · 2026-067CM

PAYLOAD ACTIVE UNKNOWN

§ Identity

Operator
Country
US
Launch date
2026-03-30
Launch site
AFWTR
Launch vehicle
Mass (kg)
RCS (m²)

External: N2YO · Heavens-Above · Gunter

§ Orbital elements

Epoch: 2026-05-24T20:25:45.528960Z

Period
96.55 min
Inclination
97.7569°
Eccentricity
0.0002955
Mean motion
14.91490574 rev/d
Perigee alt
591.2 km
Apogee alt
595.3 km
Semi-major
6,971.4 km
B*
1.5420e-4
RAAN
103.4310°
Arg perigee
100.5469°
Mean anomaly
259.6083°
Rev number
824

§ Raw data

SERT31 68499U 26067CM  26144.85122140  .00001488  00000+0  15420-3 0  99922 68499  97.7569 103.4310 0002955 100.5469 259.6083 14.91490574  8240

JSON: /api/v1/satellites/68499 · /tle

For live sub-satellite position, see the globe view (requires WebGL).

§ Visibility from observer

Set your observer location to see the next 7 days of passes ≥ 10°. The values pass through the URL so the page stays shareable.

No JS? Fill the form by hand. The geolocation button needs JavaScript.